Stratford, CT

7:46 AM EST on February 26, 2017 (GMT -0500)
Sikorsky Memorial

Weather History for KBDR - October, 2012

Change the Weather History Date:

Sunday, October 14, 2012

  Actual Average Record
Temperature  
Mean Temperature 63 °F 55 °F  
Max Temperature 69 °F 64 °F 80 °F (1990)
Min Temperature 56 °F 47 °F 32 °F (1993)
Degree Days  
Heating Degree Days 2 10  
Month to date heating degree days 100 110  
Since 1 July heating degree days 136 178  
Cooling Degree Days 0 0  
Month to date cooling degree days 7 8  
Year to date cooling degree days 1073 824  
Growing Degree Days 10 (Base 50)    
Moisture  
Dew Point 52 °F    
Average Humidity 72    
Maximum Humidity 84    
Minimum Humidity 59    
Precipitation  
Precipitation T in 0.12 in 2.12 in (2005)
Month to date precipitation 1.48 1.68  
Year to date precipitation 33.69 34.06  
Snow  
Snow 0.00 in 0.00 in 0.00 in (2002)
Month to date snowfall 0.0 0.0  
Since 1 July snowfall 0.0 0.0  
Snow Depth 0.00 in    
Sea Level Pressure  
Sea Level Pressure 30.12 in    
Wind  
Wind Speed 16 mph (SW)    
Max Wind Speed 26 mph    
Max Gust Speed 35 mph    
Visibility 10 miles    
Events      
T = Trace of Precipitation, MM = Missing Value Source: NWS Daily Summary

Daily Weather History Graph

Daily Weather History Graph

Search for Another Location

Airport or City:

Trip Planner

Search our weather history database for the weather conditions in past years. The results will help you decide how hot, cold, wet, or windy it might be!

Date:

Astronomy

Oct. 14, 2012 Rise Set
Actual Time 7:03 AM EDT 6:12 PM EDT
Civil Twilight 6:35 AM EDT 6:40 PM EDT
Nautical Twilight 6:03 AM EDT 7:12 PM EDT
Astronomical Twilight 5:31 AM EDT 7:44 PM EDT
Moon 5:59 AM EDT (10/14) 5:30 PM EDT (10/14)
Length of Visible Light 12h 04m
Length of Day
11h 09m
Waning Crescent, 1% of the Moon is Illuminated
Oct 14
Waning Crescent
Oct 15
New
Oct 21
First Quarter
Oct 29
Full
Nov 6
Last Quarter

Hourly Weather History & Observations

Time (EDT) Temp. Dew Point Humidity Pressure Visibility Wind Dir Wind Speed Gust Speed Precip Events Conditions
1:52 AM 57.0 °F 45.0 °F 64% 30.27 in 10.0 mi SW 20.7 mph 26.5 mph N/A   Clear
2:52 AM 57.0 °F 46.9 °F 69% 30.25 in 10.0 mi SW 18.4 mph 26.5 mph N/A   Clear
3:52 AM 57.0 °F 46.9 °F 69% 30.22 in 10.0 mi SW 19.6 mph 31.1 mph N/A   Clear
4:52 AM 57.0 °F 46.9 °F 69% 30.21 in 10.0 mi SW 21.9 mph 31.1 mph N/A   Partly Cloudy
5:52 AM 57.9 °F 46.9 °F 67% 30.21 in 10.0 mi SW 21.9 mph 27.6 mph N/A   Overcast
6:52 AM 59.0 °F 46.9 °F 64% 30.20 in 10.0 mi SW 18.4 mph 27.6 mph N/A   Overcast
7:52 AM 59.0 °F 48.0 °F 67% 30.19 in 10.0 mi SW 20.7 mph 29.9 mph N/A   Overcast
8:52 AM 60.1 °F 50.0 °F 69% 30.19 in 10.0 mi SW 19.6 mph 29.9 mph 0.00 in   Overcast
9:52 AM 61.0 °F 51.1 °F 70% 30.18 in 10.0 mi SW 16.1 mph 27.6 mph N/A   Overcast
10:52 AM 62.1 °F 50.0 °F 65% 30.17 in 10.0 mi SW 19.6 mph 28.8 mph N/A   Overcast
11:52 AM 63.0 °F 51.1 °F 65% 30.16 in 10.0 mi SW 16.1 mph 24.2 mph N/A   Overcast
12:52 PM 64.0 °F 52.0 °F 65% 30.14 in 10.0 mi SW 15.0 mph - N/A   Overcast
1:52 PM 64.0 °F 53.1 °F 67% 30.10 in 10.0 mi WSW 9.2 mph - N/A   Overcast
2:52 PM 68.0 °F 53.1 °F 59% 30.07 in 10.0 mi WSW 9.2 mph - N/A   Clear
3:52 PM 68.0 °F 55.0 °F 63% 30.05 in 10.0 mi SW 5.8 mph - N/A   Clear
4:52 PM 68.0 °F 55.9 °F 65% 30.04 in 10.0 mi South 11.5 mph - N/A   Clear
5:52 PM 66.9 °F 55.9 °F 68% 30.03 in 10.0 mi SSW 15.0 mph - N/A   Clear
6:52 PM 64.9 °F 57.0 °F 75% 30.02 in 10.0 mi SSW 16.1 mph - N/A   Clear
7:52 PM 64.9 °F 57.0 °F 75% 30.02 in 10.0 mi SSW 15.0 mph - N/A   Clear
8:52 PM 64.9 °F 57.9 °F 78% 30.01 in 10.0 mi SSW 17.3 mph - N/A   Clear
9:52 PM 64.9 °F 57.9 °F 78% 30.01 in 10.0 mi SSW 17.3 mph - N/A   Clear
10:52 PM 64.9 °F 59.0 °F 81% 29.99 in 10.0 mi SSW 16.1 mph - N/A   Clear
11:52 PM 64.9 °F 57.9 °F 78% 29.96 in 10.0 mi SSW 15.0 mph - N/A   Clear